sat.trackr.live / text

‹ back to catalog

ONEWEB-0501

NORAD 54119 · 2022-138G

PAYLOAD ACTIVE UNKNOWN

§ Identity

Operator
Country
UK
Launch date
2022-10-22
Launch site
SRILR
Launch vehicle
Mass (kg)
RCS (m²)

Purposes: comms

External: N2YO · Heavens-Above · Gunter

§ Orbital elements

Epoch: 2026-05-25T04:38:55.470048Z

Period
109.11 min
Inclination
87.9159°
Eccentricity
0.0001635
Mean motion
13.19725746 rev/d
Perigee alt
1,184.5 km
Apogee alt
1,187.0 km
Semi-major
7,563.9 km
B*
1.4793e-4
RAAN
309.5483°
Arg perigee
83.9725°
Mean anomaly
276.1594°
Rev number
17,377

§ Raw data

ONEWEB-05011 54119U 22138G   26145.19369757  .00000072  00000+0  14793-3 0  99962 54119  87.9159 309.5483 0001635  83.9725 276.1594 13.19725746173776

JSON: /api/v1/satellites/54119 · /tle

For live sub-satellite position, see the globe view (requires WebGL).

§ Visibility from observer

Set your observer location to see the next 7 days of passes ≥ 10°. The values pass through the URL so the page stays shareable.

No JS? Fill the form by hand. The geolocation button needs JavaScript.